User: anonymous   Login
Location: Caltech
(34.1382°N, 118.1253°W)
Time: 13:24:40
(UTC-07:00)
Language:

Cosmos 1937 Rocket - Orbit

View from above orbital plane
View from above orbital plane
View from above satellite
View from above satellite

Ground track
Ground track

The orbit data is extracted from the following two-line orbital elements,

1 19039U 88029B   16178.63283925 +.00000058 +00000-0 +27592-4 0  9992
2 19039 074.0476 234.1512 0022816 137.4696 017.9281 14.38317115479445
Epoch (UTC): 26 June 2016 15:11:17
Eccentricity: 0.0022816
inclination: 74.0476°
perigee height: 748 km
apogee height: 780 km
right ascension of ascending node: 234.1512°
argument of perigee: 137.4696°
revolutions per day: 14.38317115
mean anomaly at epoch: 17.9281°
orbit number at epoch: 47944

The dashed part of the orbit path shows where the satellite is in the earth's shadow,  

DLR